GLO9303 SBSV-SBGL

Flight info

Callsign GLO9303
Flight time 1h 50m
Altitude 38000
Route IRUMI UN857 MOLSU
Aircraft B38M/M-SDFGHIJ4J7KLORWXY/LB1

Departure

Time 2026-05-05 18:04
Airport Deputado Luiz Eduardo Magalhães International Airport (SBSV)

Arrival

Time 2026-05-05 19:55
Airport Rio Galeão – Tom Jobim International Airport (SBGL)
Time Latitude Longitude Altitude Speed Heading
2026-05-05 17:35 -12.91461 -38.33222 46 ft 0 kts 337°
2026-05-05 17:43 -12.91461 -38.33221 46 ft 0 kts 337°
2026-05-05 17:57 -12.91462 -38.33221 46 ft 1 kts 337°
2026-05-05 17:57 -12.91484 -38.33214 46 ft 4 kts 355°
2026-05-05 17:57 -12.91510 -38.33217 46 ft 4 kts 28°
2026-05-05 17:57 -12.91527 -38.33235 46 ft 4 kts 71°
2026-05-05 17:58 -12.91529 -38.33243 46 ft 0 kts 79°
2026-05-05 18:01 -12.91528 -38.33241 46 ft 1 kts 79°
2026-05-05 18:01 -12.91524 -38.33216 46 ft 6 kts 80°
2026-05-05 18:01 -12.91512 -38.33171 46 ft 7 kts 67°
2026-05-05 18:02 -12.91475 -38.33145 46 ft 7 kts 20°
2026-05-05 18:02 -12.91406 -38.33144 46 ft 15 kts 349°
2026-05-05 18:02 -12.91304 -38.33166 45 ft 13 kts 347°
2026-05-05 18:02 -12.91216 -38.33202 44 ft 14 kts 296°
2026-05-05 18:03 -12.91220 -38.33305 46 ft 15 kts 274°
2026-05-05 18:03 -12.91183 -38.33401 46 ft 15 kts 300°
2026-05-05 18:03 -12.91099 -38.33429 45 ft 14 kts 51°
2026-05-05 18:03 -12.91072 -38.33328 42 ft 18 kts 78°
2026-05-05 18:04 -12.91003 -38.32983 50 ft 88 kts 78°
2026-05-05 18:04 -12.90831 -38.32122 51 ft 156 kts 79°
2026-05-05 18:04 -12.90586 -38.30875 353 ft 187 kts 81°
2026-05-05 18:04 -12.90351 -38.29575 1357 ft 183 kts 84°
2026-05-05 18:05 -12.90153 -38.28264 2077 ft 194 kts 91°
2026-05-05 18:05 -12.90614 -38.26943 2561 ft 210 kts 134°
2026-05-05 18:05 -12.91920 -38.26142 3057 ft 236 kts 165°
2026-05-05 18:05 -12.93533 -38.25816 4044 ft 238 kts 166°
2026-05-05 18:06 -12.95210 -38.25401 4761 ft 257 kts 164°
2026-05-05 18:06 -12.96380 -38.25108 5278 ft 264 kts 165°
2026-05-05 18:06 -12.98806 -38.24594 6586 ft 271 kts 174°
2026-05-05 18:06 -13.00710 -38.24645 7507 ft 277 kts 180°
2026-05-05 18:07 -13.02658 -38.24730 8385 ft 283 kts 180°
2026-05-05 18:07 -13.04642 -38.24804 9268 ft 287 kts 179°
2026-05-05 18:07 -13.06656 -38.24872 10107 ft 292 kts 179°
2026-05-05 18:07 -13.08723 -38.24936 10739 ft 306 kts 179°
2026-05-05 18:08 -13.10869 -38.25000 11249 ft 320 kts 179°
2026-05-05 18:08 -13.13133 -38.25067 11823 ft 331 kts 180°
2026-05-05 18:08 -13.15456 -38.25135 12548 ft 336 kts 179°
2026-05-05 18:08 -13.17809 -38.25204 13303 ft 340 kts 180°
2026-05-05 18:09 -13.20189 -38.25274 14027 ft 344 kts 180°
2026-05-05 18:09 -13.22589 -38.25345 14714 ft 347 kts 180°
2026-05-05 18:09 -13.25015 -38.25416 15385 ft 351 kts 180°
2026-05-05 18:09 -13.27474 -38.25488 16030 ft 355 kts 180°
2026-05-05 18:10 -13.29952 -38.25561 16657 ft 358 kts 180°
2026-05-05 18:10 -13.32454 -38.25635 17262 ft 361 kts 181°
2026-05-05 18:10 -13.34980 -38.25709 17837 ft 365 kts 181°
2026-05-05 18:10 -13.37537 -38.25785 18399 ft 368 kts 181°
2026-05-05 18:11 -13.40109 -38.25860 18948 ft 371 kts 181°
2026-05-05 18:11 -13.42705 -38.25937 19473 ft 374 kts 181°
2026-05-05 18:11 -13.45325 -38.26014 19997 ft 377 kts 181°
2026-05-05 18:11 -13.47957 -38.26092 20486 ft 380 kts 181°
2026-05-05 18:12 -13.50615 -38.26170 20986 ft 382 kts 182°
2026-05-05 18:12 -13.53282 -38.26249 21467 ft 385 kts 182°
2026-05-05 18:12 -13.55965 -38.26329 21938 ft 387 kts 182°
2026-05-05 18:12 -13.58664 -38.26408 22372 ft 390 kts 182°
2026-05-05 18:13 -13.61387 -38.26487 22817 ft 392 kts 182°
2026-05-05 18:13 -13.64117 -38.26571 23235 ft 395 kts 182°
2026-05-05 18:13 -13.66845 -38.26649 23660 ft 397 kts 183°
2026-05-05 18:13 -13.69613 -38.26731 24035 ft 400 kts 183°
2026-05-05 18:14 -13.72409 -38.26813 24417 ft 403 kts 183°
2026-05-05 18:14 -13.75219 -38.26896 24796 ft 406 kts 183°
2026-05-05 18:14 -13.78063 -38.26980 25164 ft 409 kts 183°
2026-05-05 18:14 -13.80919 -38.27064 25514 ft 412 kts 184°
2026-05-05 18:15 -13.83793 -38.27149 25865 ft 415 kts 183°
2026-05-05 18:15 -13.86693 -38.27235 26206 ft 418 kts 184°
2026-05-05 18:15 -13.89615 -38.27322 26547 ft 421 kts 184°
2026-05-05 18:15 -13.92559 -38.27409 26879 ft 424 kts 184°
2026-05-05 18:16 -13.95520 -38.27496 27201 ft 427 kts 184°
2026-05-05 18:16 -13.98494 -38.27584 27519 ft 430 kts 184°
2026-05-05 18:16 -14.01499 -38.27673 27826 ft 433 kts 184°
2026-05-05 18:16 -14.04517 -38.27763 28137 ft 435 kts 184°
2026-05-05 18:17 -14.07551 -38.27852 28441 ft 438 kts 184°
2026-05-05 18:17 -14.10602 -38.27943 28722 ft 440 kts 184°
2026-05-05 18:17 -14.13682 -38.28034 29001 ft 443 kts 184°
2026-05-05 18:17 -14.16732 -38.28124 29287 ft 445 kts 184°
2026-05-05 18:18 -14.19881 -38.28218 29580 ft 448 kts 184°
2026-05-05 18:18 -14.22961 -38.28309 29849 ft 450 kts 184°
2026-05-05 18:18 -14.26099 -38.28403 30095 ft 453 kts 184°
2026-05-05 18:18 -14.29259 -38.28497 30353 ft 455 kts 184°
2026-05-05 18:19 -14.32430 -38.28591 30637 ft 457 kts 184°
2026-05-05 18:19 -14.35614 -38.28685 30910 ft 459 kts 184°
2026-05-05 18:19 -14.38810 -38.28780 31179 ft 460 kts 185°
2026-05-05 18:19 -14.42019 -38.28876 31453 ft 462 kts 185°
2026-05-05 18:20 -14.45237 -38.28972 31709 ft 464 kts 185°
2026-05-05 18:20 -14.48472 -38.29068 31968 ft 465 kts 185°
2026-05-05 18:20 -14.51716 -38.29164 32216 ft 467 kts 185°
2026-05-05 18:20 -14.54974 -38.29261 32486 ft 468 kts 185°
2026-05-05 18:21 -14.58235 -38.29358 32715 ft 470 kts 185°
2026-05-05 18:21 -14.61505 -38.29455 33021 ft 470 kts 185°
2026-05-05 18:21 -14.64768 -38.29552 33358 ft 469 kts 185°
2026-05-05 18:21 -14.68023 -38.29650 33708 ft 467 kts 185°
2026-05-05 18:22 -14.71271 -38.29747 34025 ft 466 kts 186°
2026-05-05 18:22 -14.74515 -38.29843 34328 ft 466 kts 186°
2026-05-05 18:22 -14.77751 -38.29940 34636 ft 465 kts 186°
2026-05-05 18:22 -14.80985 -38.30037 34932 ft 464 kts 186°
2026-05-05 18:23 -14.84216 -38.30133 35206 ft 464 kts 186°
2026-05-05 18:23 -14.87397 -38.30228 35487 ft 463 kts 186°
2026-05-05 18:23 -14.90614 -38.30324 35744 ft 462 kts 186°
2026-05-05 18:23 -14.93826 -38.30420 35990 ft 462 kts 186°
2026-05-05 18:24 -14.97039 -38.30515 36202 ft 462 kts 186°
2026-05-05 18:24 -15.00224 -38.30756 36415 ft 455 kts 197°
2026-05-05 18:24 -15.03172 -38.31766 36664 ft 443 kts 211°
2026-05-05 18:24 -15.05940 -38.33166 36835 ft 442 kts 211°
2026-05-05 18:25 -15.08679 -38.34587 37150 ft 438 kts 212°
2026-05-05 18:25 -15.10470 -38.35534 37381 ft 435 kts 212°
2026-05-05 18:25 -15.14060 -38.37460 37679 ft 433 kts 212°
2026-05-05 18:25 -15.16729 -38.38907 37847 ft 433 kts 213°
2026-05-05 18:26 -15.19395 -38.40355 37995 ft 433 kts 213°
2026-05-05 18:26 -15.22062 -38.41805 38101 ft 433 kts 213°
2026-05-05 18:26 -15.24733 -38.43259 38108 ft 433 kts 213°
2026-05-05 18:27 -15.30061 -38.46158 38100 ft 432 kts 213°
2026-05-05 18:27 -15.35381 -38.49056 38101 ft 432 kts 213°
2026-05-05 18:28 -15.43367 -38.53408 38099 ft 432 kts 213°
2026-05-05 18:28 -15.48656 -38.56293 38100 ft 432 kts 213°
2026-05-05 18:29 -15.53980 -38.59198 38101 ft 432 kts 213°
2026-05-05 18:29 -15.59306 -38.62107 38102 ft 432 kts 213°
2026-05-05 18:30 -15.64622 -38.65011 38105 ft 432 kts 213°
2026-05-05 18:30 -15.69947 -38.67922 38100 ft 432 kts 213°
2026-05-05 18:31 -15.75257 -38.70827 38103 ft 431 kts 213°
2026-05-05 18:31 -15.80570 -38.73735 38099 ft 431 kts 213°
2026-05-05 18:32 -15.85878 -38.76642 38100 ft 431 kts 213°
2026-05-05 18:32 -15.91187 -38.79551 38104 ft 431 kts 213°
2026-05-05 18:33 -15.96468 -38.82447 38099 ft 432 kts 213°
2026-05-05 18:33 -16.01775 -38.85359 38103 ft 431 kts 213°
2026-05-05 18:34 -16.07079 -38.88271 38099 ft 430 kts 213°
2026-05-05 18:34 -16.12369 -38.91177 38100 ft 430 kts 213°
2026-05-05 18:35 -16.16758 -38.93589 38100 ft 429 kts 213°
2026-05-05 18:35 -16.22040 -38.96494 38099 ft 429 kts 213°
2026-05-05 18:36 -16.27365 -38.99321 38100 ft 429 kts 212°
2026-05-05 18:36 -16.32680 -39.02144 38100 ft 430 kts 212°
2026-05-05 18:37 -16.38009 -39.04976 38101 ft 430 kts 212°
2026-05-05 18:37 -16.43328 -39.07810 38098 ft 428 kts 213°
2026-05-05 18:38 -16.48565 -39.10754 38105 ft 428 kts 213°
2026-05-05 18:38 -16.53806 -39.13695 38101 ft 427 kts 213°
2026-05-05 18:39 -16.59047 -39.16635 38101 ft 428 kts 213°
2026-05-05 18:39 -16.64284 -39.19574 38099 ft 427 kts 213°
2026-05-05 18:40 -16.69522 -39.22516 38097 ft 427 kts 213°
2026-05-05 18:40 -16.74748 -39.25452 38103 ft 427 kts 213°
2026-05-05 18:41 -16.79976 -39.28392 38103 ft 426 kts 213°
2026-05-05 18:41 -16.85161 -39.31310 38097 ft 426 kts 213°
2026-05-05 18:42 -16.90384 -39.34251 38100 ft 426 kts 213°
2026-05-05 18:42 -16.95597 -39.37187 38101 ft 426 kts 213°
2026-05-05 18:43 -17.00807 -39.40124 38111 ft 425 kts 213°
2026-05-05 18:43 -17.06013 -39.43065 38110 ft 425 kts 213°
2026-05-05 18:44 -17.11216 -39.46006 38110 ft 425 kts 213°
2026-05-05 18:44 -17.16410 -39.48943 38110 ft 424 kts 213°
2026-05-05 18:45 -17.21607 -39.51885 38110 ft 424 kts 213°
2026-05-05 18:45 -17.26799 -39.54825 38112 ft 424 kts 213°
2026-05-05 18:46 -17.31982 -39.57762 38109 ft 424 kts 213°
2026-05-05 18:46 -17.37132 -39.60682 38110 ft 423 kts 213°
2026-05-05 18:47 -17.42305 -39.63617 38109 ft 423 kts 213°
2026-05-05 18:47 -17.47466 -39.66548 38114 ft 422 kts 213°
2026-05-05 18:48 -17.52636 -39.69485 38121 ft 422 kts 213°
2026-05-05 18:48 -17.57796 -39.72419 38117 ft 421 kts 213°
2026-05-05 18:49 -17.62948 -39.75350 38118 ft 421 kts 213°
2026-05-05 18:49 -17.68095 -39.78280 38121 ft 421 kts 213°
2026-05-05 18:50 -17.73244 -39.81212 38119 ft 421 kts 213°
2026-05-05 18:50 -17.78386 -39.84144 38119 ft 420 kts 213°
2026-05-05 18:51 -17.83499 -39.87060 38127 ft 420 kts 213°
2026-05-05 18:51 -17.88636 -39.89993 38129 ft 420 kts 213°
2026-05-05 18:52 -17.93773 -39.92926 38131 ft 420 kts 213°
2026-05-05 18:52 -17.98909 -39.95861 38134 ft 420 kts 213°
2026-05-05 18:53 -18.04059 -39.98783 38131 ft 420 kts 212°
2026-05-05 18:53 -18.09208 -40.01705 38137 ft 421 kts 212°
2026-05-05 18:54 -18.14356 -40.04627 38141 ft 420 kts 213°
2026-05-05 18:54 -18.19510 -40.07555 38144 ft 420 kts 212°
2026-05-05 18:55 -18.24662 -40.10483 38147 ft 420 kts 212°
2026-05-05 18:55 -18.29804 -40.13409 38146 ft 420 kts 212°
2026-05-05 18:56 -18.34911 -40.16316 38148 ft 420 kts 212°
2026-05-05 18:56 -18.40055 -40.19246 38152 ft 420 kts 212°
2026-05-05 18:57 -18.45199 -40.22178 38142 ft 420 kts 212°
2026-05-05 18:57 -18.50330 -40.25105 38146 ft 420 kts 212°
2026-05-05 18:58 -18.55463 -40.28035 38167 ft 420 kts 212°
2026-05-05 18:58 -18.60484 -40.30903 38130 ft 419 kts 212°
2026-05-05 18:59 -18.65615 -40.33836 38146 ft 420 kts 212°
2026-05-05 18:59 -18.70767 -40.36783 38141 ft 419 kts 212°
2026-05-05 19:00 -18.75868 -40.39703 38141 ft 420 kts 212°
2026-05-05 19:00 -18.81007 -40.42646 38146 ft 420 kts 212°
2026-05-05 19:01 -18.86143 -40.45590 38146 ft 420 kts 212°
2026-05-05 19:01 -18.91275 -40.48534 38162 ft 420 kts 212°
2026-05-05 19:02 -18.96413 -40.51483 38162 ft 420 kts 212°
2026-05-05 19:02 -19.01548 -40.54433 38153 ft 419 kts 212°
2026-05-05 19:03 -19.06672 -40.57378 38157 ft 419 kts 212°
2026-05-05 19:03 -19.11767 -40.60309 38154 ft 420 kts 212°
2026-05-05 19:04 -19.16906 -40.63267 38151 ft 420 kts 212°
2026-05-05 19:04 -19.22031 -40.66219 38162 ft 419 kts 212°
2026-05-05 19:05 -19.27157 -40.69174 38161 ft 419 kts 212°
2026-05-05 19:05 -19.32280 -40.72129 38161 ft 419 kts 212°
2026-05-05 19:06 -19.37413 -40.75093 38163 ft 420 kts 212°
2026-05-05 19:06 -19.42542 -40.78055 38147 ft 420 kts 212°
2026-05-05 19:07 -19.47639 -40.81001 38155 ft 420 kts 212°
2026-05-05 19:07 -19.52765 -40.83967 38156 ft 420 kts 211°
2026-05-05 19:08 -19.57893 -40.86938 38159 ft 420 kts 212°
2026-05-05 19:08 -19.63012 -40.89913 38157 ft 419 kts 212°
2026-05-05 19:09 -19.68125 -40.92885 38161 ft 419 kts 211°
2026-05-05 19:09 -19.73238 -40.95861 38156 ft 419 kts 212°
2026-05-05 19:10 -19.78349 -40.98836 38155 ft 419 kts 211°
2026-05-05 19:10 -19.83461 -41.01814 38157 ft 419 kts 211°
2026-05-05 19:11 -19.88566 -41.04804 38158 ft 418 kts 212°
2026-05-05 19:11 -19.93657 -41.07792 38161 ft 418 kts 212°
2026-05-05 19:12 -19.98716 -41.10763 38153 ft 418 kts 212°
2026-05-05 19:12 -20.03810 -41.13756 38158 ft 419 kts 211°
2026-05-05 19:13 -20.08909 -41.16756 38159 ft 419 kts 211°
2026-05-05 19:13 -20.14009 -41.19759 38160 ft 418 kts 211°
2026-05-05 19:14 -20.19107 -41.22763 38162 ft 418 kts 211°
2026-05-05 19:14 -20.24199 -41.25765 38158 ft 417 kts 211°
2026-05-05 19:15 -20.29274 -41.28761 38160 ft 417 kts 211°
2026-05-05 19:15 -20.34355 -41.31762 38154 ft 417 kts 211°
2026-05-05 19:16 -20.39438 -41.34766 38151 ft 417 kts 211°
2026-05-05 19:16 -20.44512 -41.37767 38151 ft 417 kts 211°
2026-05-05 19:17 -20.49590 -41.40767 38154 ft 417 kts 211°
2026-05-05 19:17 -20.54646 -41.43735 38154 ft 417 kts 211°
2026-05-05 19:18 -20.59735 -41.46726 38150 ft 417 kts 211°
2026-05-05 19:18 -20.64815 -41.49715 38160 ft 417 kts 211°
2026-05-05 19:19 -20.69894 -41.52704 38154 ft 417 kts 211°
2026-05-05 19:19 -20.74975 -41.55697 38162 ft 417 kts 211°
2026-05-05 19:20 -20.80053 -41.58691 38151 ft 417 kts 211°
2026-05-05 19:20 -20.84277 -41.61184 38156 ft 418 kts 211°
2026-05-05 19:21 -20.89360 -41.64185 38165 ft 417 kts 211°
2026-05-05 19:21 -20.94444 -41.67189 38172 ft 417 kts 211°
2026-05-05 19:22 -20.99528 -41.70196 38161 ft 417 kts 211°
2026-05-05 19:22 -21.04611 -41.73203 38160 ft 418 kts 211°
2026-05-05 19:23 -21.09697 -41.76215 38147 ft 417 kts 211°
2026-05-05 19:23 -21.14747 -41.79209 38146 ft 417 kts 211°
2026-05-05 19:24 -21.19828 -41.82223 38155 ft 418 kts 211°
2026-05-05 19:24 -21.24918 -41.85245 38154 ft 418 kts 211°
2026-05-05 19:25 -21.30015 -41.88272 38166 ft 418 kts 211°
2026-05-05 19:25 -21.35105 -41.91299 38174 ft 418 kts 211°
2026-05-05 19:26 -21.40190 -41.94324 38172 ft 418 kts 211°
2026-05-05 19:26 -21.45271 -41.97350 38171 ft 418 kts 211°
2026-05-05 19:27 -21.50360 -42.00383 38172 ft 418 kts 211°
2026-05-05 19:27 -21.55399 -42.03388 38171 ft 416 kts 211°
2026-05-05 19:28 -21.57919 -42.04892 37704 ft 412 kts 211°
2026-05-05 19:28 -21.60423 -42.06386 37263 ft 408 kts 211°
2026-05-05 19:28 -21.62876 -42.07852 37013 ft 399 kts 211°
2026-05-05 19:28 -21.65286 -42.09292 36571 ft 395 kts 211°
2026-05-05 19:29 -21.67680 -42.10723 36034 ft 393 kts 211°
2026-05-05 19:29 -21.70069 -42.12152 35502 ft 392 kts 211°
2026-05-05 19:29 -21.72447 -42.13575 35020 ft 390 kts 211°
2026-05-05 19:29 -21.74818 -42.14993 34550 ft 391 kts 211°
2026-05-05 19:30 -21.77203 -42.16421 34056 ft 394 kts 211°
2026-05-05 19:30 -21.79597 -42.17855 33568 ft 394 kts 211°
2026-05-05 19:30 -21.81988 -42.19287 33102 ft 392 kts 211°
2026-05-05 19:30 -21.84335 -42.20698 32610 ft 390 kts 211°
2026-05-05 19:31 -21.86698 -42.22123 32082 ft 388 kts 210°
2026-05-05 19:31 -21.89045 -42.23539 31655 ft 385 kts 210°
2026-05-05 19:31 -21.91368 -42.24941 31226 ft 382 kts 210°
2026-05-05 19:31 -21.93678 -42.26335 30786 ft 379 kts 210°
2026-05-05 19:32 -21.95973 -42.27721 30346 ft 376 kts 210°
2026-05-05 19:32 -21.98252 -42.29098 29921 ft 374 kts 210°
2026-05-05 19:32 -22.00513 -42.30464 29498 ft 371 kts 210°
2026-05-05 19:32 -22.02760 -42.31822 29082 ft 369 kts 210°
2026-05-05 19:33 -22.04989 -42.33170 28667 ft 366 kts 209°
2026-05-05 19:33 -22.07197 -42.34508 28260 ft 364 kts 210°
2026-05-05 19:33 -22.09186 -42.36173 27837 ft 362 kts 228°
2026-05-05 19:33 -22.10546 -42.38433 27534 ft 362 kts 245°
2026-05-05 19:34 -22.11361 -42.41031 27245 ft 368 kts 251°
2026-05-05 19:34 -22.12083 -42.43681 26911 ft 369 kts 252°
2026-05-05 19:34 -22.12772 -42.46348 26583 ft 369 kts 252°
2026-05-05 19:35 -22.14098 -42.51689 25931 ft 368 kts 253°
2026-05-05 19:35 -22.14746 -42.54355 25605 ft 367 kts 253°
2026-05-05 19:35 -22.15389 -42.57021 25290 ft 367 kts 253°
2026-05-05 19:35 -22.16030 -42.59680 24974 ft 366 kts 253°
2026-05-05 19:36 -22.16668 -42.62334 24656 ft 365 kts 253°
2026-05-05 19:36 -22.17304 -42.64983 24335 ft 364 kts 253°
2026-05-05 19:36 -22.17939 -42.67627 24013 ft 364 kts 253°
2026-05-05 19:36 -22.18573 -42.70270 23700 ft 363 kts 253°
2026-05-05 19:37 -22.19202 -42.72900 23362 ft 361 kts 253°
2026-05-05 19:37 -22.19832 -42.75524 23052 ft 359 kts 253°
2026-05-05 19:37 -22.20454 -42.78123 22738 ft 358 kts 253°
2026-05-05 19:37 -22.21074 -42.80719 22420 ft 356 kts 253°
2026-05-05 19:38 -22.21689 -42.83292 22103 ft 353 kts 253°
2026-05-05 19:38 -22.22301 -42.85852 21767 ft 351 kts 253°
2026-05-05 19:38 -22.22907 -42.88394 21465 ft 348 kts 253°
2026-05-05 19:38 -22.23507 -42.90912 21166 ft 344 kts 253°
2026-05-05 19:39 -22.24103 -42.93409 20867 ft 344 kts 254°
2026-05-05 19:39 -22.24698 -42.95911 20562 ft 344 kts 253°
2026-05-05 19:39 -22.25292 -42.98408 20250 ft 342 kts 254°
2026-05-05 19:39 -22.25882 -43.00886 19952 ft 340 kts 254°
2026-05-05 19:40 -22.26469 -43.03357 19591 ft 340 kts 254°
2026-05-05 19:40 -22.27047 -43.05792 19278 ft 336 kts 254°
2026-05-05 19:40 -22.27625 -43.08227 18965 ft 333 kts 254°
2026-05-05 19:40 -22.28196 -43.10639 18643 ft 330 kts 254°
2026-05-05 19:41 -22.28764 -43.13038 18324 ft 330 kts 254°
2026-05-05 19:41 -22.29334 -43.15446 18001 ft 330 kts 255°
2026-05-05 19:41 -22.29901 -43.17841 17678 ft 328 kts 255°
2026-05-05 19:41 -22.30463 -43.20221 17352 ft 325 kts 255°
2026-05-05 19:42 -22.31020 -43.22577 17000 ft 324 kts 255°
2026-05-05 19:42 -22.31578 -43.24939 16549 ft 326 kts 255°
2026-05-05 19:42 -22.32138 -43.27310 16155 ft 326 kts 255°
2026-05-05 19:42 -22.32694 -43.29674 15806 ft 324 kts 255°
2026-05-05 19:43 -22.33248 -43.32026 15444 ft 322 kts 255°
2026-05-05 19:43 -22.33801 -43.34372 15091 ft 321 kts 255°
2026-05-05 19:43 -22.34349 -43.36705 14734 ft 320 kts 255°
2026-05-05 19:43 -22.34887 -43.38991 14393 ft 317 kts 255°
2026-05-05 19:44 -22.35428 -43.41293 14037 ft 316 kts 255°
2026-05-05 19:44 -22.35968 -43.43593 13685 ft 313 kts 255°
2026-05-05 19:44 -22.36506 -43.45833 13341 ft 305 kts 251°
2026-05-05 19:44 -22.37518 -43.47820 12957 ft 302 kts 226°
2026-05-05 19:45 -22.39174 -43.49174 12625 ft 300 kts 204°
2026-05-05 19:45 -22.41096 -43.50044 12313 ft 300 kts 201°
2026-05-05 19:45 -22.43029 -43.50894 11986 ft 299 kts 201°
2026-05-05 19:45 -22.44955 -43.51725 11631 ft 299 kts 201°
2026-05-05 19:46 -22.46889 -43.52548 11073 ft 299 kts 200°
2026-05-05 19:46 -22.48818 -43.53363 10562 ft 295 kts 200°
2026-05-05 19:46 -22.50721 -43.54162 10079 ft 291 kts 200°
2026-05-05 19:46 -22.52596 -43.54948 9598 ft 287 kts 200°
2026-05-05 19:47 -22.54459 -43.55704 9108 ft 284 kts 195°
2026-05-05 19:47 -22.56409 -43.55824 8548 ft 282 kts 168°
2026-05-05 19:47 -22.58223 -43.55088 8107 ft 276 kts 154°
2026-05-05 19:47 -22.59947 -43.54216 7679 ft 272 kts 155°
2026-05-05 19:48 -22.61648 -43.53349 7235 ft 268 kts 154°
2026-05-05 19:48 -22.63320 -43.52483 6786 ft 265 kts 152°
2026-05-05 19:48 -22.64310 -43.51735 6450 ft 262 kts 134°
2026-05-05 19:48 -22.65382 -43.50211 6020 ft 259 kts 126°
2026-05-05 19:49 -22.66436 -43.48648 5581 ft 256 kts 126°
2026-05-05 19:49 -22.67126 -43.47625 5361 ft 252 kts 126°
2026-05-05 19:49 -22.68486 -43.45593 4710 ft 253 kts 125°
2026-05-05 19:49 -22.69513 -43.44049 4207 ft 252 kts 125°
2026-05-05 19:50 -22.70515 -43.42540 3720 ft 241 kts 124°
2026-05-05 19:50 -22.71482 -43.41121 3366 ft 225 kts 125°
2026-05-05 19:50 -22.72369 -43.39806 3043 ft 210 kts 124°
2026-05-05 19:50 -22.73192 -43.38560 2793 ft 201 kts 123°
2026-05-05 19:51 -22.73988 -43.37359 2507 ft 189 kts 124°
2026-05-05 19:51 -22.74724 -43.36242 2232 ft 177 kts 125°
2026-05-05 19:51 -22.75417 -43.35198 2045 ft 167 kts 125°
2026-05-05 19:51 -22.76068 -43.34209 1830 ft 157 kts 124°
2026-05-05 19:52 -22.76689 -43.33267 1598 ft 151 kts 124°
2026-05-05 19:52 -22.77296 -43.32345 1383 ft 150 kts 125°
2026-05-05 19:52 -22.77902 -43.31424 1204 ft 150 kts 125°
2026-05-05 19:52 -22.78487 -43.30521 1007 ft 145 kts 126°
2026-05-05 19:53 -22.79089 -43.29630 792 ft 147 kts 127°
2026-05-05 19:53 -22.79700 -43.28747 661 ft 147 kts 126°
2026-05-05 19:53 -22.80185 -43.27997 472 ft 142 kts 125°
2026-05-05 19:53 -22.80718 -43.27163 238 ft 139 kts 125°
2026-05-05 19:54 -22.81204 -43.26425 96 ft 138 kts 126°
2026-05-05 19:54 -22.81730 -43.25631 26 ft 111 kts 126°
2026-05-05 19:54 -22.82052 -43.25150 27 ft 64 kts 126°
2026-05-05 19:54 -22.82299 -43.24766 23 ft 56 kts 118°
2026-05-05 19:55 -22.82363 -43.24523 21 ft 21 kts 97°
2026-05-05 19:55 -22.82299 -43.24395 21 ft 21 kts 35°
2026-05-05 19:55 -22.82184 -43.24309 28 ft 15 kts 31°
2026-05-05 19:55 -22.82098 -43.24344 24 ft 16 kts 305°
2026-05-05 19:56 -22.82033 -43.24446 26 ft 17 kts 306°
2026-05-05 19:56 -22.81969 -43.24541 27 ft 14 kts 306°
2026-05-05 19:56 -22.81892 -43.24604 25 ft 15 kts
2026-05-05 19:56 -22.81793 -43.24559 25 ft 15 kts 356°
2026-05-05 19:57 -22.81716 -43.24606 24 ft 14 kts 316°
2026-05-05 19:57 -22.81678 -43.24657 24 ft 14 kts 303°
2026-05-05 19:57 -22.81608 -43.24772 24 ft 14 kts 303°
2026-05-05 19:57 -22.81582 -43.24798 24 ft 0 kts 344°
2026-05-05 19:58 -22.81581 -43.24799 24 ft 0 kts 349°
2026-05-05 19:58 -22.81574 -43.24799 24 ft 2 kts 349°
2026-05-05 19:58 -22.81553 -43.24804 24 ft 3 kts 359°
2026-05-05 19:58 -22.81540 -43.24802 24 ft 1 kts 14°
2026-05-05 19:59 -22.81525 -43.24794 24 ft 4 kts 27°
2026-05-05 19:59 -22.81518 -43.24789 24 ft 0 kts 34°
2026-05-05 19:59 -22.81514 -43.24786 24 ft 0 kts 37°